Temp
74 73 73 73 73 74 74 74 74 74 74 75 76 76 74 73 69 68 69 71 78 79 78 77 77 76 77 77 77 77 77 77 76
73 72 72 72 72 72 73 73 73 74 73 74 74 74 73 72 68 68 69 70 78 79 78 77 77 77 77 77 77 76 76 76 76
72 72 71 71 71 71 71 72 72 72 73 73 73 72 70 71 69 70 70 73 78 79 78 77 77 77 76 76 76 76 76 76 76
72 72 70 71 71 70 70 71 71 71 72 72 71 70 69 69 68 70 70 72 77 80 78 77 77 77 77 76 76 76 76 76 76
70 70 69 70 70 70 71 71 71 71 70 70 70 69 68 64 67 68 68 73 77 79 78 77 77 77 77 75 75 76 76 76 76
64 66 68 69 70 71 71 72 71 70 68 68 67 67 64 63 65 67 71 74 76 76 77 76 77 77 76 76 75 75 75 76 76
64 61 66 67 67 68 69 69 68 65 60 60 64 61 60 60 64 66 71 75 78 77 76 74 76 76 76 76 75 75 75 75 75
56 55 55 55 61 57 59 57 58 57 57 58 59 61 59 59 62 66 71 76 77 76 75 74 73 74 75 75 75 75 75 75 74
53 53 53 53 53 53 53 53 55 56 57 57 57 58 59 60 61 62 66 72 74 75 74 74 73 73 73 73 73 73 73 73 73
52 52 52 52 52 52 52 52 53 53 55 56 57 58 58 60 61 60 64 70 72 73 73 73 73 74 74 75 74 73 73 73 73
52 52 52 51 51 52 51 51 52 52 52 55 56 56 57 58 60 60 60 68 69 71 73 73 74 74 74 75 74 74 73 73 73
52 50 50 51 51 52 52 52 52 51 54 52 55 56 56 57 58 59 60 61 66 68 71 71 71 72 73 73 74 74 73 73 72
52 50 50 51 51 51 50 50 50 50 50 50 54 53 55 56 57 58 59 59 61 64 68 69 69 69 70 71 72 73 72 72 72
52 50 50 51 50 49 49 50 48 48 51 53 54 54 54 55 60 57 58 59 59 58 65 65 65 66 67 69 71 72 72 70 69
52 51 50 50 49 48 48 48 49 48 49 55 55 52 53 54 55 55 59 59 59 59 59 57 58 64 66 68 68 68 68 68 69
52 51 50 49 48 47 48 48 47 47 50 47 49 51 54 54 54 55 55 58 58 58 58 57 56 58 64 66 66 66 67 67 68
54 51 50 49 47 47 47 46 45 46 47 44 45 45 50 53 55 54 57 56 57 58 60 58 57 56 56 57 64 63 65 66 67
54 52 50 48 47 46 46 45 46 43 45 46 47 43 42 45 51 53 54 54 54 54 56 58 59 58 56 57 58 61 62 64 66
54 53 50 48 48 46 46 50 46 45 42 45 52 52 51 42 42 49 50 52 52 50 51 53 55 57 55 57 56 59 61 63 64
53 52 50 48 48 47 46 46 45 45 43 43 43 44 47 50 47 40 43 47 49 49 50 50 52 55 55 52 56 59 60 62 62
MSLP
1017.50 1017.46 1017.35 1017.21 1017.03 1016.81 1016.63 1016.41 1016.21 1016.06 1015.89 1015.65 1015.45 1015.48 1015.55 1015.47 1015.44 1015.51 1015.24 1015.29 1015.25 1015.29 1015.52 1015.62 1015.78 1015.97 1016.11 1016.22 1016.31 1016.45 1016.59 1016.71 1016.82
1017.56 1017.43 1017.33 1017.26 1017.12 1016.89 1016.73 1016.51 1016.33 1016.09 1015.92 1015.69 1015.48 1015.30 1015.25 1015.36 1015.34 1015.23 1015.10 1015.02 1014.90 1014.82 1015.12 1015.34 1015.47 1015.68 1015.90 1016.11 1016.24 1016.36 1016.49 1016.61 1016.73
1017.56 1017.42 1017.34 1017.21 1017.12 1016.96 1016.77 1016.62 1016.45 1016.25 1015.99 1015.73 1015.55 1015.36 1015.11 1014.87 1015.00 1014.91 1014.74 1014.68 1014.60 1014.52 1014.69 1014.98 1015.17 1015.35 1015.58 1015.82 1015.99 1016.18 1016.30 1016.43 1016.54
1017.53 1017.41 1017.28 1017.14 1016.96 1016.81 1016.69 1016.50 1016.34 1016.20 1015.98 1015.72 1015.47 1015.33 1015.14 1014.76 1014.54 1014.55 1014.32 1014.22 1014.09 1013.93 1014.19 1014.48 1014.81 1015.02 1015.21 1015.45 1015.68 1015.89 1016.07 1016.18 1016.27
1017.56 1017.43 1017.28 1017.18 1017.03 1016.78 1016.58 1016.35 1016.16 1016.04 1015.91 1015.64 1015.38 1015.09 1014.98 1014.84 1014.34 1014.15 1014.10 1013.69 1013.57 1013.42 1013.71 1014.02 1014.30 1014.55 1014.79 1015.12 1015.33 1015.53 1015.73 1015.91 1016.05
1017.56 1017.44 1017.25 1017.14 1016.95 1016.68 1016.55 1016.18 1016.01 1015.89 1015.65 1015.52 1015.26 1014.96 1014.70 1014.58 1014.32 1013.84 1013.48 1013.33 1013.21 1013.26 1013.35 1013.54 1013.79 1014.07 1014.39 1014.68 1014.93 1015.19 1015.35 1015.54 1015.71
1017.64 1017.56 1017.32 1017.18 1016.94 1016.73 1016.55 1016.35 1016.14 1015.95 1015.73 1015.50 1015.11 1014.85 1014.61 1014.54 1014.27 1013.78 1013.23 1012.79 1012.75 1012.76 1012.78 1012.75 1013.29 1013.60 1013.93 1014.28 1014.53 1014.72 1014.94 1015.13 1015.29
1018.02 1017.77 1017.63 1017.45 1017.12 1017.13 1016.95 1016.72 1016.37 1016.11 1015.76 1015.48 1015.15 1014.76 1014.53 1014.29 1014.03 1013.67 1013.10 1012.32 1012.41 1012.47 1012.61 1012.73 1012.75 1013.29 1013.64 1013.88 1014.07 1014.37 1014.49 1014.66 1014.87
1018.39 1018.11 1018.04 1017.76 1017.45 1017.33 1017.20 1016.98 1016.37 1016.11 1015.77 1015.35 1014.98 1014.72 1014.45 1013.98 1013.56 1013.43 1013.16 1012.57 1012.30 1012.54 1012.66 1012.73 1013.06 1013.14 1013.41 1013.61 1013.77 1013.95 1014.17 1014.37 1014.53
1018.52 1018.21 1018.11 1017.90 1017.57 1017.33 1017.20 1016.98 1016.45 1016.33 1015.74 1015.22 1014.94 1014.80 1014.34 1013.82 1013.45 1013.23 1013.16 1012.94 1012.71 1012.77 1012.87 1013.02 1013.18 1013.17 1013.32 1013.46 1013.61 1013.77 1013.90 1014.05 1014.11
1018.53 1018.31 1018.22 1017.99 1017.66 1017.31 1017.16 1016.99 1016.65 1016.30 1015.72 1015.25 1015.02 1014.71 1014.20 1013.69 1013.37 1013.16 1013.03 1012.93 1012.96 1012.93 1012.97 1013.07 1013.20 1013.27 1013.35 1013.44 1013.54 1013.64 1013.78 1013.88 1013.89
1018.43 1018.45 1018.39 1018.00 1017.58 1017.34 1017.12 1016.90 1016.45 1016.22 1015.63 1015.27 1015.04 1014.49 1014.05 1013.67 1013.38 1013.18 1012.95 1013.00 1012.94 1013.08 1013.11 1013.15 1013.26 1013.31 1013.43 1013.46 1013.48 1013.59 1013.78 1013.84 1013.89
1018.22 1018.37 1018.34 1017.93 1017.60 1017.41 1017.34 1017.08 1016.53 1016.19 1015.80 1015.36 1014.82 1014.34 1014.01 1013.66 1013.35 1013.26 1013.16 1013.11 1013.20 1013.14 1013.23 1013.29 1013.38 1013.44 1013.50 1013.48 1013.49 1013.54 1013.67 1013.74 1013.80
1018.04 1018.21 1018.16 1017.76 1017.69 1017.62 1017.55 1017.09 1016.76 1016.43 1015.93 1015.27 1014.62 1014.22 1013.94 1013.73 1013.34 1013.38 1013.36 1013.33 1013.26 1013.45 1013.33 1013.43 1013.54 1013.63 1013.64 1013.51 1013.46 1013.45 1013.50 1013.61 1013.73
1017.78 1018.05 1017.97 1017.73 1017.85 1017.78 1017.60 1017.21 1016.86 1016.63 1016.22 1015.27 1014.57 1014.04 1013.77 1013.67 1013.56 1013.55 1013.44 1013.46 1013.48 1013.55 1013.65 1013.77 1013.78 1013.81 1013.81 1013.65 1013.66 1013.76 1013.81 1013.84 1013.80
1017.53 1017.94 1017.90 1017.76 1017.92 1017.95 1017.62 1017.33 1017.13 1016.73 1016.32 1015.72 1014.76 1014.21 1013.86 1013.83 1013.72 1013.69 1013.83 1013.77 1013.67 1013.78 1013.94 1014.00 1014.09 1014.14 1014.03 1013.98 1014.07 1014.10 1014.06 1014.04 1013.94
1017.39 1017.81 1017.87 1017.84 1017.91 1017.86 1017.65 1017.47 1017.39 1017.07 1016.76 1016.72 1016.05 1015.41 1014.80 1014.33 1014.02 1013.96 1014.03 1014.03 1013.88 1013.98 1013.94 1014.01 1014.18 1014.25 1014.24 1014.27 1014.27 1014.25 1014.22 1014.16 1013.95
1017.30 1017.56 1017.53 1017.74 1017.87 1017.80 1017.62 1017.48 1017.46 1017.58 1017.07 1016.81 1016.69 1016.19 1015.93 1015.51 1014.62 1014.39 1014.47 1014.42 1014.58 1014.68 1014.49 1014.13 1014.04 1014.08 1014.22 1014.35 1014.42 1014.43 1014.47 1014.33 1014.13
1017.24 1017.29 1017.29 1017.60 1017.71 1017.67 1017.61 1017.41 1017.32 1017.36 1017.50 1017.03 1016.77 1016.58 1016.56 1016.28 1015.83 1015.12 1015.07 1014.89 1014.97 1015.05 1014.91 1014.71 1014.32 1014.04 1014.13 1014.26 1014.47 1014.55 1014.60 1014.57 1014.44
1017.06 1017.06 1017.16 1017.50 1017.59 1017.59 1017.50 1017.43 1017.37 1017.36 1017.41 1017.35 1017.20 1016.96 1016.74 1016.62 1016.53 1016.41 1016.10 1015.50 1015.25 1015.16 1015.03 1014.75 1014.42 1014.07 1014.02 1014.29 1014.36 1014.46 1014.65 1014.62 1014.52
Wind_Speed
8 8 9 10 10 10 11 11 10 10 10 8 11 12 12 10 6 6 7 6 12 12 11 10 9 8 8 8 9 9 9 8 7
8 8 8 9 10 11 11 11 11 11 11 11 10 10 11 8 6 6 7 6 14 15 13 12 11 11 10 9 9 9 10 9 7
7 8 8 10 12 12 12 13 13 13 13 13 12 10 8 6 6 8 6 9 17 17 15 14 13 13 12 12 11 11 11 11 10
6 7 5 11 11 11 12 13 13 13 14 15 15 12 11 5 4 8 6 12 17 21 17 16 15 14 13 13 12 12 12 10 13
3 5 6 7 9 11 13 13 13 14 15 16 16 14 13 7 6 6 7 18 18 18 18 17 16 15 14 13 12 13 13 13 13
6 8 8 7 9 12 13 13 13 15 13 15 15 15 5 6 5 5 12 20 22 19 18 17 17 15 13 12 13 15 15 15 15
6 7 10 9 11 11 12 14 14 10 4 5 9 3 5 4 6 4 12 22 21 19 18 17 16 15 13 12 12 12 14 16 16
4 4 4 5 7 4 6 6 4 7 5 5 5 6 5 4 4 6 13 11 12 12 12 12 14 14 14 14 13 13 13 14 15
4 3 5 4 4 5 5 4 6 7 7 7 6 7 6 4 3 3 11 6 4 3 5 5 5 6 9 9 10 11 12 12 15
4 4 4 4 4 3 5 5 5 6 6 7 7 7 7 7 4 3 6 6 3 3 2 2 5 7 7 8 7 7 5 7 9
3 4 4 4 3 4 4 5 5 5 5 6 6 7 7 6 6 4 2 3 2 3 3 5 7 8 8 9 7 5 3 4 5
2 3 4 4 4 5 5 5 4 5 5 6 6 6 6 5 5 4 3 3 4 3 4 4 6 8 9 10 10 7 5 4 4
2 3 4 4 4 3 4 4 4 5 5 5 6 5 5 6 4 3 3 3 2 1 1 1 3 5 8 8 9 8 8 7 5
1 2 4 4 4 4 3 3 3 4 6 6 5 5 4 5 3 4 4 3 2 1 2 2 2 5 6 7 8 9 7 3 2
1 3 4 4 3 4 4 3 3 3 5 7 5 5 4 3 1 2 3 3 5 4 2 1 1 1 1 2 3 4 4 5 5
1 2 3 3 3 3 3 3 4 4 6 4 5 4 3 3 2 2 2 4 4 4 4 3 1 2 3 3 4 4 5 5 5
2 1 2 3 3 5 4 3 3 2 4 3 2 4 4 4 2 3 2 2 2 2 2 3 3 2 1 1 4 6 7 7 7
3 3 0 2 1 2 3 2 3 2 3 4 2 3 2 4 3 3 4 4 5 5 5 3 2 1 2 4 5 6 6 8 8
5 4 1 2 2 2 2 2 1 2 1 3 4 2 2 2 4 3 3 4 6 5 5 5 5 1 1 4 6 6 5 5 7
5 4 2 2 2 3 2 3 3 1 1 1 1 1 1 2 1 3 5 4 4 3 4 5 4 4 2 4 5 6 5 6 8
Wind_Direction
7 8 3 3 357 354 348 346 348 346 339 316 271 261 251 227 223 249 254 238 215 192 202 197 203 202 202 187 193 194 188 180 173
359 359 357 359 350 343 337 335 334 335 333 333 318 296 259 247 223 232 251 243 214 194 199 202 199 199 202 204 199 189 187 191 190
360 359 9 356 344 338 333 329 326 324 321 319 317 315 313 260 226 235 237 247 231 210 200 202 205 203 208 214 212 213 218 211 205
342 353 354 342 344 340 332 324 319 314 310 308 306 304 296 273 246 250 243 242 249 217 203 199 206 209 208 212 216 218 219 221 213
318 334 313 332 339 334 333 330 327 321 312 303 294 290 282 272 256 248 257 258 246 229 204 200 204 212 217 218 225 221 223 221 218
342 328 306 320 326 328 330 339 326 316 305 306 297 288 262 255 259 245 251 259 257 239 224 205 205 211 217 216 215 222 226 224 222
5 3 16 350 339 356 343 343 342 338 321 305 308 305 289 278 271 267 263 258 254 253 237 217 206 210 219 223 224 225 227 230 229
360 360 357 346 358 350 344 338 330 329 329 323 320 318 294 274 278 290 304 299 242 243 236 230 233 226 225 230 232 239 238 235 234
352 1 339 346 344 344 338 326 329 329 315 316 320 314 306 291 286 308 323 312 27 252 233 238 299 277 255 252 253 248 250 251 250
337 347 343 332 343 350 334 325 334 317 319 322 320 303 300 303 297 305 342 331 12 54 71 305 298 303 290 278 260 250 253 258 257
349 347 335 326 338 330 335 321 319 314 321 328 312 302 298 297 299 294 297 249 243 297 310 305 283 274 271 268 275 284 293 292 292
351 343 326 309 327 334 336 323 323 328 322 320 305 300 308 315 309 324 318 316 219 225 284 320 306 271 267 265 259 250 261 299 303
359 335 315 314 329 332 337 314 327 322 317 307 297 303 311 311 326 353 5 38 44 54 295 321 314 302 277 267 264 264 269 281 292
49 330 303 326 337 344 329 319 345 326 325 305 293 301 300 306 338 355 350 11 61 85 98 148 299 300 284 271 268 267 277 331 8
72 326 316 345 351 341 341 331 332 314 310 305 308 292 284 270 331 351 26 51 40 28 27 359 358 354 350 63 59 39 19 7 349
147 311 327 353 352 311 327 324 339 329 341 333 330 341 1 342 312 74 71 59 55 58 63 46 27 2 1 57 61 40 22 2 348
181 216 318 339 344 339 337 355 334 320 10 330 283 1 342 356 6 78 114 116 57 21 22 56 106 103 50 293 22 46 27 0 340
206 226 245 320 321 318 314 359 24 334 323 353 19 353 345 327 343 352 28 16 38 5 338 330 310 303 130 96 97 70 33 2 346
211 194 164 284 289 315 301 347 352 97 338 339 2 321 351 350 335 348 22 17 29 11 352 342 318 271 186 121 138 102 62 14 349
211 192 189 258 286 280 289 330 335 345 172 196 304 315 308 320 283 299 333 342 355 346 319 309 312 300 154 124 127 100 56 10 342